Tracking 28125 objects as of 3-Oct-2023
HD Live streaming from Space Station
objects crossing your sky now

SL-8 R/B

Track SL-8 R/B now!
10-day predictions


NORAD ID: 10918
Int'l Code: 1978-053B
Perigee: 957.4 km
Apogee: 1,003.1 km
Inclination: 82.9 °
Period: 104.5 minutes
Semi major axis: 7351 km
RCS: 5.0251 m2 (large)
Launch date: May 23, 1978
Source: Commonwealth of Independent States (former USSR) (CIS)
Launch site: PLESETSK MISSILE AND SPACE COMPLEX (PKMTR)

Note: This is a ROCKET BODY
Your satellite tracking list
Your tracking list is empty




NASA's NSSDC Master Catalog

Two Line Element Set (TLE):
1 10918U 78053B   23275.86004872  .00000171  00000-0  15589-3 0  9996
2 10918  82.9154  51.6641 0031067  55.6297  56.7036 13.77399153279007
Source of the keplerian elements: AFSPC